Date,TemperatureHighF,TemperatureAvgF,TemperatureLowF,DewpointHighF,DewpointAvgF,DewpointLowF,HumidityHigh,HumidityAvg,HumidityLow,PressureMaxIn,PressureMinIn,WindSpeedMaxMPH,WindSpeedAvgMPH,GustSpeedMaxMPH,PrecipitationSumIn
2013-3-1,74.0,58.8,47.5,56.1,50.1,45.0,92,75,45,30.43,30.24,6,0,6,0.00
2013-3-2,69.1,57.5,50.9,55.3,50.1,47.2,87,77,59,30.24,30.07,17,2,17,0.00
2013-3-3,63.7,52.0,45.6,52.5,47.1,42.4,91,84,61,30.10,30.04,24,8,24,0.00
2013-3-4,54.7,47.7,42.4,47.7,43.4,38.8,91,85,74,30.16,30.07,27,3,27,0.00
2013-3-5,56.2,48.3,41.9,46.2,42.7,38.6,90,81,69,30.08,29.83,37,11,37,0.12
2013-3-6,54.6,49.6,45.0,48.0,44.1,41.5,91,82,67,30.07,29.83,41,11,45,0.04
2013-3-7,55.5,47.7,43.4,47.5,43.4,41.0,91,85,69,30.00,29.87,12,0,12,0.01
2013-3-8,65.8,52.0,44.7,48.7,41.8,37.1,85,69,44,30.05,29.84,9,0,9,0.00
2013-3-9,71.0,54.8,42.6,50.5,42.7,38.4,86,66,38,30.31,30.05,10,1,10,0.00
2013-3-10,66.0,55.4,46.9,51.5,43.6,36.6,87,66,40,30.35,30.25,15,3,16,0.00
2013-3-11,71.5,55.3,46.0,51.7,44.8,40.3,90,70,40,30.26,30.11,15,2,15,0.00
2013-3-12,75.4,56.5,46.6,62.5,50.1,44.4,93,81,51,30.17,30.08,8,1,8,0.00
2013-3-13,78.7,61.2,48.5,58.7,51.7,46.0,92,73,38,30.17,30.07,5,0,5,0.00
2013-3-14,66.5,56.7,49.8,55.3,49.7,45.4,90,78,58,30.17,30.08,11,1,11,0.00
2013-3-15,70.5,56.2,48.2,54.7,48.1,43.9,89,75,54,30.14,30.04,15,1,15,0.00
2013-3-16,73.5,56.7,47.6,55.3,46.9,41.0,93,73,35,30.12,30.03,11,2,11,0.00
2013-3-17,66.3,56.0,48.2,49.0,44.5,39.8,84,66,45,30.15,30.04,14,2,14,0.00
2013-3-18,61.1,52.2,46.0,50.4,45.5,42.1,90,79,61,30.13,30.04,23,3,23,0.00
2013-3-19,60.5,52.3,46.8,50.7,45.8,41.7,88,79,62,30.14,30.06,18,3,18,0.06
2013-3-20,56.1,51.6,47.8,52.0,48.6,43.3,93,90,80,30.15,30.07,22,5,24,0.12
2013-3-21,65.7,52.2,42.4,49.1,44.0,39.6,93,75,49,30.14,30.02,12,1,12,0.01
2013-3-22,72.9,56.1,44.9,45.3,37.6,28.3,82,54,21,30.13,30.03,10,0,10,0.00
2013-3-23,67.8,55.0,46.1,43.6,37.2,27.2,82,54,24,30.15,30.05,14,2,14,0.00
2013-3-24,64.1,53.2,46.5,49.9,45.4,41.6,88,76,53,30.10,29.98,13,2,15,0.00
2013-3-25,56.9,49.0,43.7,47.9,43.7,40.6,90,82,71,30.03,29.94,19,5,19,0.00
2013-3-26,59.6,50.9,44.0,50.3,45.0,40.4,88,80,70,30.02,29.95,17,4,17,0.00
2013-3-27,57.2,52.1,48.3,52.1,48.7,43.7,93,88,82,30.03,29.96,14,4,14,0.00
2013-3-28,63.9,55.3,52.1,56.7,51.7,49.0,93,88,74,30.10,30.01,14,4,16,0.00
2013-3-29,77.8,57.9,49.8,60.1,51.2,47.0,90,80,49,30.09,30.02,17,2,18,0.01
2013-3-30,65.6,54.7,50.9,55.9,50.4,48.0,91,86,70,30.08,29.98,24,8,26,0.07
2013-3-31,62.9,55.7,52.3,56.2,51.5,49.2,89,86,75,30.08,30.00,21,6,22,0.06